sat.trackr.live / text

‹ back to catalog

STARLINK-34811

NORAD 65396 · 2025-191T

PAYLOAD ACTIVE UNKNOWN

§ Identity

Operator
Country
US
Launch date
2025-08-30
Launch site
AFWTR
Launch vehicle
Mass (kg)
RCS (m²)

Purposes: comms

External: N2YO · Heavens-Above · Gunter

§ Orbital elements

Epoch: 2026-09-20T02:29:49.475040Z

Period
93.91 min
Inclination
97.2832°
Eccentricity
0.0001403
Mean motion
15.33440754 rev/d
Perigee alt
464.6 km
Apogee alt
466.5 km
Semi-major
6,843.7 km
B*
5.1150e-4
RAAN
129.0704°
Arg perigee
88.5614°
Mean anomaly
271.5789°
Rev number
5,957

§ Raw data

STARLINK-348111 65396U 25191T   26263.10404485  .00016472  00000+0  51150-3 0  99962 65396  97.2832 129.0704 0001403  88.5614 271.5789 15.33440754 59576

JSON: /api/v1/satellites/65396 · /tle

For live sub-satellite position, see the globe view (requires WebGL).

§ Visibility from observer

Set your observer location to see the next 7 days of passes ≥ 10°. The values pass through the URL so the page stays shareable.

No JS? Fill the form by hand. The geolocation button needs JavaScript.